COSMOS 1867 COOLANT

Satellite information

Favourite Embed

Satellite Type and Status

DEBRISIN ORBIT

Key statistics

Satellite COSMOS 1867 COOLANT at a glance.

Uptime

14037

Days in orbit

Revolutions

≈ 14.3

Per day

Orbit

LEO

Low Earth Orbit

Inclination

65.0

Latest

Satellite identification and parameters

Extended collection of information and parameters for COSMOS 1867 COOLANT.

Object identification

Identified? True

Debris? False

Object name: COSMOS 1867 COOLANT

International designator: 1987-060K

Object number (NORAD): 39642

Object ID (CCSDS): 39642

Country: COMMONWEALTH OF INDEPENDENT STATES (CIS)

Current information (Y/N): Y

RCS size: SMALL

Orbital parameters

Period: 100.461 minutes

Inclination: 65.0072 deg

SMA: 7158.558 km

Apoapsis: 790.199 km

Periapsis: 770.648 km

RAAN: 182.25 deg

Eccentricy: 0.00136555

Argument of periapsis: 276.7736 deg

Mean anomaly: 83.1796 deg

Mean motion: 14.3339015 rev/day

Mean motion (dot): 0.00000443 rev/day2

B* drag term: 0.0001963677 1/REarth

Two-line elements (TLE)

Creation date: Dec. 12, 2025, 10:14 a.m.

Reference frame: TEME

Reference center: EARTH

Epoch: Dec. 12, 2025, 3:52 a.m. UTC

TLE line 0: 0 COSMOS 1867 COOLANT

TLE line 1: 1 39642U 87060K 25346.16168249 .00000443 00000-0 19637-3 0 9992

TLE line 2: 2 39642 65.0072 182.2500 0013655 276.7736 83.1796 14.33390150610743

Live tracking on map

Real-time ground track for satellite COSMOS 1867 COOLANT.

In-orbit conjunctions

A list of the most updated potential collisions computed for object COSMOS 1867 COOLANT.

Target Orbit TCA Probability of collision Miss distance Type
CZ-6A DEB SSO 2025-09-11 01:59:20 0.0003831723 104.0 (m) DEBRIS
IRIDIUM 28 LEO 2024-12-24 03:12:36 0.0003481297 754.0 (m) PAYLOAD
CZ-6A DEB SSO 2024-08-17 14:22:59 0.0002432013 91.0 (m) DEBRIS

Associated space launch

Nuclear-powered magnetospheric research satellite

COSMOS 1867 COOLANT was lifted into orbit during the mission ‘Tsiklon-2 | Plasma-A 2’, on board a Tsiklon-2 space rocket.

The launch took place on July 10, 1987, 3:35 p.m. from 90.

For more information about the launch, click the button.

Launch to space Tsiklon-2 | Plasma-A 2
Tsiklon-2 | Plasma-A 2

Agency: N/A

Status: Launch Successful

Launch date: July 10, 1987, 3:35 p.m. UTC

Rocket: Tsiklon-2

Launch pad: 90

Location: Baikonur Cosmodrome, Republic of Kazakhstan

...

Latest news about this satellite

There are no fresh news available about this satellite. Check back as we update our databases every day.


Newsletter sign-up

Weekly statistics, charts and insights to help you stay on top of the space industry.